Location: Newark
(48.5667°N, 12.8167°E)
Time: 01:39:36
(UTC+00:00)

METEOR M2 - Visible Passes

Search period start: 28 February 2021 00:00
Search period end: 10 March 2021 00:00
Orbit: 820 x 826 km, 98.5° (Epoch: 27 February)

Date Brightness Start Highest point End Pass type
(mag) Time Alt. Az. Time Alt. Az. Time Alt. Az.
28 Feb ? 18:28:12 10° S 18:33:29 57° W 18:38:49 10° NNW visible
01 Mar ? 18:08:08 10° SSE 18:13:31 82° WSW 18:18:58 10° NNW visible
01 Mar ? 19:52:12 10° WSW 19:54:33 13° W 19:56:54 10° WNW visible
02 Mar ? 17:48:17 10° SSE 17:53:38 71° ENE 17:59:01 10° N visible
02 Mar ? 19:30:36 10° SW 19:34:20 19° W 19:38:06 10° NW visible
03 Mar ? 17:28:37 10° SE 17:33:47 50° ENE 17:38:59 10° N visible
03 Mar ? 19:09:41 10° SSW 19:14:12 27° W 19:18:45 10° NW visible
04 Mar ? 18:49:08 10° SSW 18:54:07 39° W 18:59:10 10° NNW visible
05 Mar ? 18:28:50 10° S 18:34:07 56° W 18:39:26 10° NNW visible
06 Mar ? 18:08:46 10° SSE 18:14:09 80° WSW 18:19:35 10° NNW visible
06 Mar ? 19:52:58 10° WSW 19:55:11 12° W 19:57:26 10° WNW visible
07 Mar ? 17:48:53 10° SSE 17:54:15 73° ENE 17:59:39 10° N visible
07 Mar ? 19:31:18 10° SW 19:34:59 18° W 19:38:41 10° NW visible
08 Mar ? 17:29:13 10° SE 17:34:24 51° ENE 17:39:38 10° N visible
08 Mar ? 19:10:21 10° SSW 19:14:51 26° W 19:19:22 10° NW visible
09 Mar ? 18:49:47 10° SSW 18:54:46 38° W 18:59:47 10° NNW visible
